Zurück zum Katalog

COSMOS 970 DEB *

AktivVLEO
NORAD 20327·DEBRIS·🇷🇺 Russia

Gestartet Dec 21, 1977 von Baikonur Cosmodrome

Loading…

Nächste Überflüge (nächste 24 Stunden)

TLE

AlterndSource: Space-Track

Epoche: Sep 12, 2026, 18:30 UTC

1 20327U 77121BY  26255.77091379  .00359084  50661-4  14731-2 0  9994
2 20327  65.7467 177.0018 0049142 307.5260  52.1445 15.83816108774165

Verfolge COSMOS 970 DEB * in Echtzeit mit AllMySat

Download on the App Store